Wind_Speed
47 47 47 46 46 46 46 46 46 46 46 46 46 45 45 44 44 43 41 39 39 38 38 38 37 36 35 34 34 33 33 32 31 30 30 30 30 30 29 29 29 29 29
47 48 48 47 46 46 46 46 46 46 47 47 46 46 46 46 45 44 44 43 42 41 41 40 39 38 37 36 35 34 34 34 33 32 31 31 31 31 31 31 31 31 31
47 48 48 48 47 48 47 48 47 47 47 47 47 46 46 46 46 45 45 45 44 43 42 42 41 40 39 38 37 37 36 35 34 33 33 32 32 32 32 32 32 32 32
46 47 47 48 48 48 48 48 48 47 47 47 47 46 46 46 46 45 46 46 45 44 44 43 43 42 41 40 39 39 38 37 36 35 35 34 34 33 33 33 33 33 33
45 46 47 48 48 48 49 49 49 48 47 47 47 47 46 46 46 46 46 46 46 45 45 44 44 43 42 41 41 40 40 39 38 37 36 36 36 35 34 34 33 33 33
43 45 46 47 48 48 49 49 49 49 48 48 48 48 47 46 46 47 47 47 47 47 46 46 45 44 43 42 42 41 41 40 39 39 39 38 37 37 36 35 35 35 34
42 43 44 46 47 47 48 49 49 49 48 48 48 48 48 47 47 47 47 48 47 47 47 47 46 45 44 44 43 42 42 41 41 40 40 39 38 38 37 37 37 37 35
40 41 43 44 46 47 48 49 50 49 49 49 48 48 48 48 48 48 47 48 48 47 46 47 46 45 45 45 44 44 43 43 43 42 41 40 39 38 39 38 38 38 38
39 40 42 43 44 46 48 49 49 49 50 49 49 49 49 50 50 49 48 48 49 49 48 48 47 46 46 46 46 45 45 44 44 43 43 42 41 41 40 40 40 40 39
38 39 41 42 44 45 46 47 48 49 49 49 49 49 50 50 51 50 50 50 51 50 50 50 49 48 47 46 46 46 46 46 45 44 44 43 43 43 43 42 42 42 41
37 39 41 42 43 44 45 46 47 48 48 49 50 50 50 50 50 51 51 51 52 52 52 51 50 50 49 48 48 47 47 46 45 45 44 44 44 44 44 44 43 43 42
35 37 39 41 42 44 45 46 46 47 48 49 49 50 51 51 50 50 51 51 51 51 52 51 50 50 50 49 48 48 48 48 47 46 46 45 45 45 45 45 44 44 44
35 37 38 39 40 42 43 44 45 45 47 48 50 50 50 51 51 51 51 51 51 51 51 52 51 51 51 50 50 49 49 49 49 48 48 48 47 47 47 47 46 45 46
34 36 38 39 39 40 42 42 44 45 46 47 48 49 50 50 50 50 49 49 50 50 50 51 52 52 51 51 51 51 50 50 50 50 49 49 48 48 48 48 47 47 46
34 35 37 38 40 41 41 42 43 44 45 47 47 47 48 49 48 48 48 48 48 48 49 50 51 51 51 51 51 51 51 51 51 51 50 49 49 47 47 47 47 47 46
34 35 36 38 40 41 42 43 43 44 45 46 46 47 47 48 48 48 48 48 47 47 48 49 49 50 51 51 52 53 53 52 51 50 50 49 48 47 46 46 46 45 45
31 34 36 38 39 41 42 43 44 45 46 46 46 47 47 47 48 48 48 49 49 49 48 48 49 49 50 51 52 53 53 52 51 50 49 49 48 48 48 48 47 46 45
29 31 33 35 37 38 40 42 43 44 45 46 47 48 48 48 48 48 48 48 48 48 49 49 49 48 48 50 51 52 52 51 51 50 50 49 48 47 48 48 47 47 46
29 30 31 32 34 36 37 38 39 40 41 43 45 46 48 48 48 48 48 48 48 48 48 48 48 48 48 49 49 50 51 50 50 50 50 49 48 48 48 48 48 47 47
28 29 29 31 32 34 35 36 38 38 39 40 42 44 45 46 46 46 47 47 47 47 47 47 47 47 46 47 48 49 50 50 50 50 50 49 49 49 48 48 48 48 47
28 28 28 30 31 33 34 34 35 36 37 38 39 40 41 42 43 44 45 46 46 47 47 47 47 46 46 46 46 46 47 48 49 49 49 49 49 49 48 49 49 48 48
26 27 27 28 30 32 33 33 34 35 36 36 37 37 37 39 40 41 42 43 43 44 45 45 45 45 45 45 45 45 45 46 47 48 48 48 48 49 49 49 49 49 48
25 25 26 27 28 29 30 31 32 33 34 35 35 35 35 36 37 38 39 39 40 41 42 42 43 43 43 43 44 45 45 45 45 46 47 47 47 48 48 49 48 48 48
25 25 26 26 26 27 28 29 30 30 31 31 33 33 34 35 35 35 36 37 38 39 39 40 41 42 42 42 43 44 44 44 44 43 44 45 45 45 46 46 47 48 48
26 26 25 25 25 25 26 27 27 27 27 28 29 30 31 32 32 33 34 35 36 37 38 38 39 40 40 41 41 42 42 43 43 42 42 43 44 44 44 44 45 45 46
23 24 24 24 23 23 24 24 25 25 25 25 26 26 27 29 30 31 32 33 34 35 36 36 37 37 38 38 38 39 40 40 40 40 40 41 42 42 42 42 42 42 43
Wind_Direction
235 234 234 234 235 236 237 237 238 239 239 240 241 242 242 242 242 242 243 244 244 244 245 246 248 250 251 252 254 255 256 258 260 262 263 264 265 266 267 269 270 271 273
236 234 234 234 235 236 237 238 238 239 240 241 242 243 243 243 243 243 244 245 245 246 246 247 248 250 250 252 253 254 256 258 260 261 263 264 266 265 267 268 269 271 272
237 235 234 234 235 235 237 238 239 239 240 241 242 243 244 244 244 243 244 244 245 246 248 248 249 249 250 251 252 253 255 257 259 261 263 264 265 266 267 268 269 270 271
237 236 235 235 235 236 237 238 240 241 241 242 242 243 243 244 244 244 244 244 245 247 248 248 249 250 250 251 252 253 255 256 258 261 262 264 265 266 267 268 269 270 270
237 236 235 235 236 236 237 239 240 241 242 242 242 242 243 244 244 244 244 245 246 247 248 248 249 250 250 251 252 253 254 256 258 260 262 263 264 265 267 267 268 269 270
236 236 236 236 237 237 237 238 239 240 242 242 242 242 244 244 245 245 245 246 246 247 248 248 249 250 250 250 251 253 254 256 258 260 262 263 264 265 266 266 267 268 269
237 237 237 237 238 238 238 238 239 240 241 242 242 243 243 244 245 246 246 246 246 247 246 247 248 249 250 250 251 252 254 256 257 259 261 262 264 264 265 266 267 268 269
238 239 239 238 239 239 240 240 240 240 241 241 242 243 243 244 245 246 246 246 246 246 247 247 247 249 250 251 252 252 254 255 257 258 260 261 262 264 265 266 267 268 269
240 240 239 239 239 239 240 240 240 241 242 242 243 243 244 244 245 246 247 247 246 247 248 249 249 249 250 251 251 253 254 255 256 258 259 260 261 263 265 266 266 268 269
240 240 239 239 239 240 239 240 240 241 242 243 243 243 244 246 247 247 247 248 247 247 248 249 250 250 250 251 252 253 254 255 256 257 258 259 261 263 265 266 267 268 269
241 240 240 240 240 240 240 240 241 242 242 243 243 244 245 247 247 248 248 248 248 248 248 248 249 250 250 251 251 252 253 254 256 257 258 259 261 263 265 266 266 267 268
244 243 242 241 241 242 242 241 242 243 243 243 243 244 245 246 247 248 248 248 248 248 248 248 249 249 250 251 251 252 253 254 256 257 258 259 261 262 264 265 265 266 267
247 246 245 244 243 242 243 243 243 243 244 244 245 245 246 246 247 248 248 248 248 248 249 249 250 250 250 251 252 253 254 255 256 258 259 260 261 262 263 264 265 266 268
251 248 247 246 245 244 244 244 244 245 245 245 246 246 246 247 248 248 248 248 248 249 250 250 250 250 250 251 252 253 254 255 256 258 260 260 261 262 263 264 265 267 268
254 250 249 248 247 246 246 246 246 246 247 246 246 246 246 246 247 247 248 249 248 248 249 250 250 250 250 251 252 253 255 255 257 258 259 260 261 262 263 264 265 266 267
256 253 252 251 250 249 248 248 248 249 249 249 248 248 247 247 247 248 248 249 249 249 249 249 250 251 251 251 251 253 255 256 257 257 258 259 260 261 262 264 265 266 267
259 256 255 254 252 251 251 251 251 251 250 250 250 249 249 248 248 248 249 249 250 250 250 250 251 252 253 252 253 254 254 255 256 257 257 258 260 261 262 263 264 266 267
261 259 256 255 254 254 254 253 253 253 252 251 250 249 249 249 249 249 249 250 250 251 251 252 253 254 254 254 253 253 254 254 255 256 257 258 259 260 261 262 263 265 266
262 260 257 256 255 256 256 254 253 253 253 252 252 251 250 250 249 249 249 250 251 252 252 252 252 253 254 255 254 254 254 255 255 256 257 258 259 260 261 263 264 264 265
264 263 259 256 257 257 257 256 255 254 253 253 253 252 251 250 249 249 249 250 251 251 251 252 252 253 254 255 255 255 255 255 256 257 258 258 258 259 260 262 263 264 265
265 264 262 260 259 258 257 256 254 253 253 253 253 253 252 250 250 249 249 250 250 251 251 252 252 253 254 255 256 255 256 256 256 257 257 258 258 258 259 260 262 264 265
265 265 263 263 262 259 258 256 254 253 253 254 254 253 252 251 250 250 250 250 251 252 253 253 254 254 255 256 256 256 256 257 257 257 257 258 258 258 259 259 261 263 264
265 267 266 264 263 260 258 257 257 255 254 254 254 253 252 252 252 251 251 251 251 252 253 254 255 255 255 255 256 256 256 258 258 258 258 258 258 259 259 260 261 262 263
266 268 268 265 263 260 258 257 257 256 254 253 253 253 253 252 251 251 251 251 251 252 253 254 255 254 254 255 257 257 257 258 259 259 259 258 258 259 259 260 261 262 264
271 269 268 265 263 260 258 256 255 253 253 254 254 254 253 251 250 251 252 252 253 254 255 255 255 255 254 256 258 257 256 257 258 258 258 258 258 259 259 261 262 263 264
274 271 267 265 262 259 257 255 254 256 256 256 255 253 253 252 251 251 251 252 252 253 254 255 255 255 255 256 257 257 256 256 257 257 257 258 258 259 260 261 262 263 263
Height
5686 5692 5698 5703 5709 5713 5718 5722 5727 5731 5735 5739 5744 5748 5752 5756 5760 5764 5768 5771 5775 5778 5781 5784 5787 5789 5792 5794 5796 5798 5800 5802 5804 5805 5806 5807 5808 5809 5810 5810 5811 5811 5812
5675 5681 5687 5693 5699 5704 5708 5712 5717 5721 5725 5730 5734 5739 5742 5746 5750 5754 5758 5762 5766 5769 5772 5776 5779 5781 5784 5787 5789 5791 5793 5795 5796 5798 5799 5800 5802 5802 5803 5803 5804 5804 5805
5664 5671 5677 5683 5688 5693 5698 5703 5707 5711 5715 5720 5724 5729 5732 5736 5740 5745 5749 5752 5756 5760 5763 5767 5770 5773 5776 5778 5781 5783 5785 5787 5788 5790 5792 5793 5794 5795 5796 5796 5796 5797 5797
5654 5660 5666 5672 5678 5683 5688 5692 5697 5701 5705 5710 5714 5719 5723 5727 5731 5735 5739 5742 5746 5750 5754 5757 5761 5764 5766 5769 5772 5774 5777 5778 5780 5781 5783 5784 5786 5787 5788 5788 5788 5789 5789
5644 5650 5655 5661 5667 5672 5677 5682 5686 5691 5695 5700 5704 5708 5713 5717 5721 5725 5728 5732 5736 5740 5743 5747 5750 5754 5757 5760 5762 5765 5767 5769 5771 5773 5774 5775 5776 5778 5779 5780 5781 5781 5781
5634 5639 5645 5651 5657 5662 5666 5671 5676 5680 5685 5690 5694 5698 5703 5707 5711 5714 5718 5722 5726 5730 5733 5737 5740 5744 5747 5750 5753 5755 5757 5760 5762 5763 5765 5766 5767 5769 5770 5771 5772 5772 5773
5624 5630 5635 5641 5646 5651 5656 5661 5665 5670 5675 5679 5684 5688 5692 5696 5700 5704 5708 5712 5716 5719 5722 5726 5729 5733 5736 5739 5742 5745 5747 5750 5752 5753 5755 5756 5758 5759 5760 5761 5762 5763 5764
5616 5621 5625 5630 5636 5641 5646 5650 5655 5659 5664 5668 5673 5677 5681 5685 5689 5693 5697 5701 5705 5708 5711 5715 5718 5722 5725 5728 5731 5734 5737 5739 5741 5743 5745 5746 5748 5749 5750 5751 5752 5753 5754
5606 5611 5615 5620 5625 5630 5634 5639 5643 5648 5652 5657 5661 5666 5670 5674 5678 5682 5685 5689 5693 5696 5700 5703 5707 5710 5714 5717 5720 5723 5726 5728 5731 5733 5735 5736 5738 5739 5740 5741 5742 5743 5744
5597 5601 5605 5609 5613 5618 5622 5626 5631 5636 5641 5645 5650 5654 5658 5662 5666 5670 5673 5677 5681 5685 5688 5692 5695 5698 5702 5705 5708 5712 5714 5717 5719 5722 5724 5725 5727 5728 5729 5730 5731 5732 5732
5588 5591 5595 5599 5602 5606 5610 5614 5618 5623 5628 5633 5637 5641 5645 5649 5654 5657 5661 5665 5668 5672 5676 5680 5683 5686 5690 5693 5696 5700 5702 5705 5708 5710 5712 5714 5716 5717 5718 5719 5720 5721 5721
5578 5582 5585 5589 5592 5596 5600 5603 5607 5611 5616 5620 5624 5629 5633 5637 5641 5645 5648 5652 5656 5660 5663 5667 5671 5674 5678 5681 5684 5687 5690 5693 5696 5698 5700 5702 5704 5706 5707 5707 5708 5709 5710
5569 5572 5575 5579 5582 5585 5589 5593 5596 5600 5604 5608 5612 5616 5620 5625 5629 5632 5636 5639 5643 5647 5650 5654 5658 5661 5665 5668 5671 5674 5677 5680 5683 5686 5688 5690 5691 5693 5694 5695 5696 5697 5698
5561 5563 5566 5569 5572 5575 5578 5582 5586 5589 5593 5596 5600 5604 5608 5612 5616 5620 5623 5627 5630 5634 5638 5641 5645 5648 5652 5655 5658 5662 5665 5667 5670 5673 5675 5677 5678 5680 5682 5683 5684 5685 5686
5552 5554 5556 5559 5562 5565 5568 5571 5574 5578 5581 5584 5588 5591 5595 5599 5603 5607 5611 5614 5618 5621 5625 5628 5632 5635 5639 5642 5645 5648 5651 5654 5657 5660 5662 5664 5666 5667 5669 5670 5672 5673 5673
5543 5545 5547 5549 5552 5554 5557 5560 5563 5566 5569 5572 5576 5579 5582 5586 5590 5594 5598 5602 5605 5608 5612 5615 5618 5622 5625 5628 5631 5634 5638 5641 5644 5646 5649 5651 5653 5654 5656 5658 5659 5660 5661
5535 5536 5538 5539 5541 5544 5546 5549 5551 5554 5557 5560 5564 5567 5570 5574 5577 5581 5585 5588 5592 5595 5599 5602 5605 5608 5611 5614 5618 5621 5624 5627 5630 5633 5635 5638 5640 5642 5643 5645 5646 5648 5648
5526 5527 5528 5529 5531 5533 5535 5537 5540 5542 5545 5548 5551 5554 5557 5561 5565 5568 5572 5575 5579 5582 5586 5589 5592 5595 5598 5600 5603 5606 5610 5613 5616 5619 5622 5625 5627 5629 5630 5632 5634 5635 5636
5517 5518 5519 5520 5521 5523 5524 5526 5528 5530 5533 5536 5538 5541 5545 5548 5552 5556 5559 5563 5566 5569 5572 5575 5578 5581 5584 5587 5589 5592 5596 5599 5602 5605 5608 5611 5614 5616 5618 5619 5621 5623 5624
5509 5509 5510 5511 5512 5513 5514 5515 5517 5519 5522 5524 5527 5529 5532 5535 5539 5543 5547 5550 5553 5556 5559 5562 5565 5568 5571 5573 5576 5578 5582 5586 5589 5592 5595 5598 5600 5602 5604 5605 5607 5609 5611
5501 5501 5501 5501 5502 5503 5504 5505 5507 5509 5511 5513 5516 5518 5520 5524 5527 5531 5534 5537 5541 5544 5547 5550 5553 5556 5558 5561 5563 5565 5567 5571 5574 5577 5581 5583 5586 5588 5590 5591 5594 5596 5597
5492 5492 5492 5492 5492 5493 5494 5496 5498 5499 5501 5503 5505 5507 5510 5513 5516 5519 5522 5525 5528 5532 5534 5537 5540 5543 5545 5548 5550 5552 5554 5557 5560 5563 5566 5569 5571 5573 5575 5577 5580 5581 5583
5484 5484 5484 5484 5484 5484 5485 5487 5488 5489 5491 5493 5495 5497 5500 5502 5505 5508 5511 5514 5517 5520 5522 5525 5528 5531 5533 5535 5537 5539 5542 5544 5547 5549 5552 5554 5557 5559 5561 5563 5565 5567 5568
5477 5476 5476 5476 5476 5476 5477 5478 5479 5480 5482 5484 5486 5488 5490 5492 5495 5497 5500 5503 5506 5508 5511 5513 5516 5519 5521 5523 5525 5527 5529 5532 5534 5536 5538 5541 5543 5545 5547 5549 5551 5552 5554
5469 5469 5468 5468 5468 5468 5469 5469 5471 5472 5474 5475 5477 5479 5481 5483 5485 5488 5490 5492 5495 5497 5500 5502 5504 5507 5509 5511 5513 5514 5517 5519 5521 5523 5525 5527 5530 5532 5534 5536 5537 5538 5540
5462 5461 5461 5461 5461 5461 5462 5463 5464 5465 5466 5468 5469 5471 5472 5474 5476 5479 5481 5482 5485 5487 5489 5491 5493 5495 5498 5499 5501 5502 5504 5506 5508 5511 5513 5515 5517 5519 5521 5523 5524 5525 5527